#timestamp,LO_Frequency,Hit,StdDev 
1590008415.3,286047004.0,N
1590008435.2,286047006.0,N
1590008455.0,286047007.6,Y
1590008455.9,286047007.6,P
1590008475.8,286047002.9,N
1590008495.6,286047006.0,N
1590008515.4,286047003.0,N
1590008535.3,286047005.6,N
1590008555.1,286047004.1,N
1590008556.0,286047004.1,N
1590008575.8,286047002.9,N
1590008595.7,286047003.1,N
1590008615.5,286047005.7,Y
1590008635.4,286047000.4,P
1590008655.2,286046998.3,N
1590008675.0,286046999.1,N
1590008675.9,286046999.1,N
1590008695.8,286046998.4,N
1590008715.6,286046998.6,N
1590008735.4,286046998.9,N
1590008755.3,286047000.6,N
1590008775.1,286047000.8,N
1590008795.8,286046998.1,N
1590008815.7,286047000.6,N
1590008835.5,286046999.8,N
1590008855.4,286047002.1,N
1590008875.2,286047000.7,N
1590008895.0,286046998.9,N
1590008895.9,286046998.9,N
1590008915.8,286046998.7,N
1590008935.6,286046998.6,N
1590008955.4,286046999.2,N
1590008975.3,286046999.5,N
1590008995.1,286046996.9,N
1590009015.9,286046998.4,N
1590009035.7,286046999.0,N
1590009055.5,286046998.9,N
1590009075.4,286046999.9,N
1590009095.2,286047000.9,N
1590009115.0,286046999.8,N
1590009116.0,286046999.8,N
1590009135.8,286046999.7,N
1590009155.6,286047001.0,N
1590009175.5,286047000.0,N
1590009195.3,286047000.6,N
1590009215.1,286046998.5,N
1590009235.9,286047001.0,N
1590009255.7,286047000.1,N
1590009275.6,286047002.7,N
1590009295.4,286047004.3,Y
1590009315.2,286047003.6,P
1590009335.1,286047001.8,N
1590009336.0,286047001.8,N
1590009355.8,286047004.4,Y
1590009375.7,286047000.5,P
1590009395.5,286047001.2,N
1590009415.3,286046998.4,P
1590009435.2,286046996.5,N
1590009455.0,286046999.6,N
1590009455.9,286046999.6,N
1590009475.8,286046995.7,N
1590009495.6,286046997.7,N
1590009515.4,286046997.3,N
1590009535.3,286046995.5,N
1590009555.1,286046997.0,N
1590009575.8,286046999.4,N
1590009595.7,286046999.6,N
1590009615.5,286046996.9,N
1590009635.4,286046999.0,N
1590009655.2,286046997.0,N
1590009675.0,286046997.4,N
1590009675.9,286046997.4,N
1590009695.8,286046996.1,N
1590009715.6,286046996.3,N
1590009735.4,286046995.8,N
1590009755.3,286046997.8,N
1590009775.1,286046999.4,N
1590009795.9,286046998.3,N
1590009815.7,286046998.6,N
1590009835.5,286047002.3,N
1590009855.4,286046999.3,N
1590009875.2,286046996.7,N
1590009895.0,286046999.1,N
1590009895.9,286046999.1,N
1590009915.8,286046997.2,N
1590009935.6,286046998.0,N
1590009955.5,286046998.7,N
1590009975.3,286046999.5,N
1590009995.1,286046998.6,N
1590010015.9,286046996.6,N
1590010035.7,286046999.5,N
1590010055.5,286047001.1,N
1590010075.4,286047000.7,N
1590010095.2,286046999.5,N
1590010115.1,286046999.5,N
1590010116.0,286046999.5,N
1590010135.8,286046998.1,N
1590010155.6,286046999.5,N
1590010175.5,286046997.0,N
1590010195.3,286046997.4,N
1590010215.1,286046996.8,N
1590010235.9,286046997.0,N
1590010255.7,286046997.0,N
1590010275.6,286046996.8,N
1590010295.4,286046999.3,N
1590010315.2,286046999.5,N
1590010335.1,286046996.7,N
1590010336.0,286046996.7,N
1590010355.8,286046995.6,Y
1590010375.6,286046996.7,P
1590010395.5,286046999.5,N
1590010415.3,286046998.8,N
1590010435.2,286046999.9,N
1590010455.9,286046999.0,N
1590010475.7,286046999.1,N
1590010495.6,286046996.6,Y
1590010515.4,286047001.1,P
1590010535.2,286047000.3,N
1590010555.1,286046999.2,N
1590010556.0,286046999.2,N
1590010575.8,286046998.1,N
1590010595.7,286046998.9,N
1590010615.5,286046998.9,N
1590010635.3,286047000.5,N
1590010655.2,286047000.4,N
1590010675.9,286047002.2,N
1590010695.7,286047000.3,N
1590010715.6,286047002.4,N
1590010735.4,286047002.2,N
1590010755.2,286047001.9,N
1590010775.1,286047000.2,N
1590010776.0,286047000.2,N
1590010795.8,286047000.4,N
1590010815.7,286047000.1,N
1590010835.5,286047000.1,N
1590010855.3,286046998.3,N
1590010875.2,286046998.5,N
1590010895.0,286047002.1,N
1590010895.9,286047002.1,N
1590010915.7,286047000.9,N
1590010935.6,286047001.2,N
1590010955.4,286046997.2,N
1590010975.3,286046999.0,N
1590010995.1,286046998.2,N
1590010996.0,286046998.2,N
1590011015.8,286046998.2,N
1590011035.7,286047000.3,N
1590011055.5,286047002.2,N
1590011075.3,286047004.2,N
1590011095.2,286047003.6,N
1590011115.0,286047001.8,N
1590011115.9,286047001.8,N
1590011135.8,286047002.0,N
1590011155.6,286047004.0,N
1590011175.4,286047000.9,N
1590011195.3,286047002.4,N
1590011215.1,286047001.6,N
1590011235.8,286047002.4,N
1590011255.7,286047000.6,N
1590011275.5,286047001.0,N
1590011295.4,286046998.8,N
1590011315.2,286047001.0,N
1590011335.0,286047000.7,N
1590011335.9,286047000.7,N
1590011355.8,286046999.9,N
1590011375.6,286047000.4,N
1590011395.4,286046998.6,N
1590011415.3,286046998.8,N
1590011435.1,286046997.2,N
1590011455.9,286046997.3,N
1590011475.7,286046996.6,N
1590011495.5,286046999.6,N
1590011515.4,286046997.1,N
1590011535.2,286046996.7,N
1590011555.0,286046997.0,N
1590011555.9,286046997.0,N
1590011575.8,286046996.9,N
1590011595.6,286046995.4,N
1590011615.4,286046998.7,N
1590011635.3,286047000.4,N
1590011655.1,286046998.1,N
1590011675.9,286047002.5,N
1590011695.7,286047000.5,N
1590011715.5,286047000.0,N
1590011735.4,286046999.9,N
1590011755.2,286047002.8,N
1590011775.0,286047002.1,N
1590011775.9,286047002.1,N
1590011795.8,286047000.3,N
1590011815.6,286046998.7,N
1590011835.5,286046996.6,N
1590011855.3,286047000.6,N
1590011875.1,286047001.8,N
1590011895.9,286047001.3,N
1590011915.7,286046999.9,N
1590011935.5,286047002.3,N
1590011955.4,286047000.1,N
1590011975.2,286047001.4,N
1590011995.1,286047004.4,N
1590011996.0,286047004.4,N
